Location: Newark
(48.1500°N, 2.9667°W)
Time: 05:58:09
(UTC+00:00)

Transit 2A - Pass Details

Date: 25 January 2020
Orbit: 600 x 959 km, 66.7° (Epoch: 19 February)

Event Time Altitude Azimuth Distance (km) Brightness Sun altitude
Rises 19:32:00 0° 189° (S) 2,899 9.1 -25.2°
Enters shadow 19:34:24 10° 181° (S) 1,980 8.1 -25.6°
Reaches altitude 10° 19:34:26 10° 181° (S) 1,968 - -25.6°
Maximum altitude 19:38:24 35° 116° (ESE) 986 - -26.3°
Drops below altitude 10° 19:42:21 10° 50° (NE) 1,951 - -26.9°
Sets 19:44:44 0° 42° (NE) 2,871 - -27.3°
